Date_and_time,latitude,longitude,wind_speed,RelWindDirFrom,WindDirFrom,air_pressure,air_temperature,relative_humidity,Temp,platform_speed_wrt_ground,air_pressure_at_mean_sea_level,platform_orientation
2019-07-26 23:40,53.374995,-98.3880883333333,8.9,10.0,304,981.59,18.7,79,20.76,0.0,1007.51,326.4
2019-07-26 23:50,53.3750616666667,-98.3880083333333,8.7,10.5,301,981.70,18.5,80,20.75,0.0,1007.62,326.4
2019-07-27 00:00,53.375035,-98.387965,8.3,9.9,306,981.63,18.4,81,20.72,0.0,1007.54,98.1
2019-07-27 00:10,53.3750166666667,-98.3881183333333,7.3,9.0,311,981.62,18.4,81,20.72,0.0,1007.54,98.1
2019-07-27 00:20,53.375365,-98.388295,7.0,9.2,312,981.67,18.3,83,20.74,0.1,1007.58,98.1
2019-07-27 00:30,53.3620983333333,-98.3539183333333,1.7,10.2,94,981.77,18.4,84,20.74,8.8,1007.69,98.1
2019-07-27 00:40,53.34634,-98.3109133333333,5.2,7.1,85,981.84,18.6,82,20.76,10.8,1007.76,98.1
2019-07-27 00:50,53.3307866666667,-98.2674683333333,2.9,6.2,87,981.98,18.8,79,20.78,10.9,1007.89,98.1
2019-07-27 01:00,53.31437,-98.2247866666667,1.0,4.4,165,981.97,19.2,79,20.79,10.9,1007.86,121.8
2019-07-27 01:10,53.2981283333333,-98.1819616666667,1.4,4.3,213,982.02,19.7,76,20.81,10.9,1007.88,121.8
2019-07-27 01:20,53.28219,-98.138755,0.4,3.4,27,982.03,19.9,73,20.83,10.9,1007.88,121.8
2019-07-27 01:30,53.2657833333333,-98.096135,1.3,4.7,52,982.04,20.0,72,20.82,10.9,1007.89,121.8
2019-07-27 01:40,53.2496533333333,-98.0532,2.9,5.6,28,982.07,19.5,76,20.78,10.9,1007.95,121.8
2019-07-27 01:50,53.233005,-98.0109883333333,2.1,4.6,45,982.06,19.4,77,20.72,10.9,1007.95,121.8
2019-07-27 02:00,53.2172633333333,-97.9679233333333,2.8,6.6,20,982.03,19.3,79,20.66,10.9,1007.93,121.9
2019-07-27 02:10,53.20188,-97.9241266666667,2.7,5.4,343,982.06,19.2,80,20.63,10.9,1007.95,121.9
2019-07-27 02:20,53.1912716666667,-97.8965,6.7,14.6,320,982.02,19.2,81,20.59,7.1,1007.91,121.9
2019-07-27 02:30,53.1909916666667,-97.89658,11.9,15.3,314,981.75,19.2,83,20.56,0.1,1007.63,121.9
2019-07-27 02:40,53.1909833333333,-97.8965516666667,11.0,13.0,325,981.75,19.1,83,20.53,0.0,1007.62,121.9
2019-07-27 02:50,53.191,-97.8964983333333,11.2,14.0,320,981.81,19.2,83,20.52,0.0,1007.67,121.9
2019-07-27 03:00,53.1910133333333,-97.8964283333333,12.5,14.4,314,981.96,19.2,83,20.53,0.0,1007.79,121.9
2019-07-27 03:10,53.191015,-97.89637,12.6,15.0,318,982.01,19.2,83,20.54,0.0,1007.84,121.9
2019-07-27 03:20,53.1909783333333,-97.8965183333333,12.9,14.7,323,982.07,19.3,83,20.54,0.0,1007.89,121.9
2019-07-27 03:30,53.1909766666667,-97.8965316666667,11.8,14.2,329,982.16,19.3,81,20.55,0.0,1008.00,121.9
2019-07-27 03:40,53.1909816666667,-97.896615,11.3,13.7,338,982.21,19.3,79,20.54,0.0,1008.06,121.9
2019-07-27 03:50,53.190975,-97.8967283333333,11.0,12.8,342,982.38,19.3,79,20.55,0.0,1008.24,121.9
2019-07-27 04:00,53.1909816666667,-97.896715,10.4,12.5,345,982.42,19.3,80,20.55,0.0,1008.29,122.0
2019-07-27 04:10,53.190965,-97.896695,10.9,12.6,341,982.52,19.3,81,20.55,0.0,1008.39,122.0
2019-07-27 04:20,53.1909616666667,-97.8966466666667,10.7,12.5,336,982.68,19.3,81,20.54,0.0,1008.55,122.0
2019-07-27 04:30,53.1909716666667,-97.89661,10.1,11.7,333,982.77,19.3,82,20.54,0.0,1008.64,122.0
2019-07-27 04:40,53.1909983333333,-97.89654,10.3,12.1,327,982.79,19.3,82,20.54,0.0,1008.66,122.0
2019-07-27 04:50,53.1909816666667,-97.89664,10.6,12.9,328,982.81,19.3,82,20.53,0.0,1008.69,122.0
2019-07-27 05:00,53.190975,-97.8966783333333,10.3,11.9,327,982.80,19.3,81,20.52,0.0,1008.67,121.6
2019-07-27 05:10,53.191,-97.896645,9.3,10.9,335,982.78,19.4,79,20.53,0.0,1008.65,121.6
2019-07-27 05:20,53.1909733333333,-97.8967833333333,9.1,10.9,344,982.81,19.3,78,20.53,0.0,1008.68,121.6
2019-07-27 05:30,53.1909616666667,-97.8967516666667,8.0,9.8,348,982.87,19.3,79,20.53,0.0,1008.75,121.6
2019-07-27 05:40,53.190975,-97.8967316666667,7.9,9.6,350,982.90,19.2,79,20.52,0.0,1008.77,121.6
2019-07-27 05:50,53.190975,-97.8967316666667,8.3,9.6,347,982.95,19.2,79,20.50,0.0,1008.83,121.6
2019-07-27 06:00,53.190985,-97.8967133333333,8.1,9.5,345,983.01,19.2,78,20.50,0.0,1008.89,262.3
2019-07-27 06:10,53.1909833333333,-97.89666,7.5,8.6,347,982.99,19.1,78,20.50,0.0,1008.87,262.3
2019-07-27 06:20,53.1909816666667,-97.89678,7.3,8.6,349,983.01,19.1,78,20.50,0.0,1008.89,262.3
2019-07-27 06:30,53.19099,-97.8968816666667,7.5,9.4,356,983.01,19.1,80,20.51,0.0,1008.89,262.3
2019-07-27 06:40,53.1909716666667,-97.8967266666667,6.8,8.2,354,982.97,19.0,80,20.52,0.0,1008.85,262.3
2019-07-27 06:50,53.1910033333333,-97.89686,6.2,7.4,6,983.02,18.9,83,20.53,0.0,1008.92,262.3
2019-07-27 07:00,53.1909966666667,-97.8968116666667,6.4,7.2,358,983.09,18.7,86,20.55,0.0,1009.00,285.8
2019-07-27 07:10,53.191005,-97.8968033333333,6.0,7.0,355,983.12,18.6,87,20.57,0.0,1009.03,285.8
2019-07-27 07:20,53.1909916666667,-97.89676,5.4,6.4,351,983.12,18.6,87,20.58,0.0,1009.03,285.8
2019-07-27 07:30,53.19103,-97.8967666666667,5.0,6.1,349,983.15,18.6,86,20.58,0.0,1009.06,285.8
2019-07-27 07:40,53.1910133333333,-97.8967,4.3,5.5,329,983.12,18.7,85,20.59,0.0,1009.03,285.8
2019-07-27 07:50,53.1910266666667,-97.8967083333333,4.1,5.1,335,983.09,18.7,86,20.59,0.0,1009.00,285.8
2019-07-27 08:00,53.1910283333333,-97.89672,2.6,4.5,313,983.12,18.7,85,20.58,0.0,1009.03,330.9
2019-07-27 08:10,53.1910033333333,-97.8966933333333,2.2,3.6,314,983.13,18.7,85,20.57,0.0,1009.04,330.9
2019-07-27 08:20,53.1910516666667,-97.8965783333333,3.9,5.1,289,983.25,18.7,84,20.56,0.0,1009.17,330.9
2019-07-27 08:30,53.191075,-97.896585,3.9,4.8,281,983.23,18.7,84,20.56,0.0,1009.15,330.9
2019-07-27 08:40,53.191045,-97.8966233333333,2.8,4.8,270,983.19,18.8,84,20.53,0.0,1009.11,330.9
2019-07-27 08:50,53.191055,-97.8965566666667,2.8,4.0,280,983.18,18.8,84,20.51,0.0,1009.12,330.9
2019-07-27 09:00,53.19106,-97.89661,3.1,3.9,280,983.24,18.8,84,20.51,0.0,1009.17,45.2
2019-07-27 09:10,53.1911066666667,-97.8965483333333,2.4,3.3,251,983.30,18.7,86,20.48,0.0,1009.24,45.2
2019-07-27 09:20,53.191105,-97.8964983333333,3.5,4.6,255,983.34,18.8,87,20.50,0.0,1009.28,45.2
2019-07-27 09:30,53.1911533333333,-97.8964616666667,4.0,5.0,243,983.33,18.9,88,20.50,0.0,1009.25,45.2
2019-07-27 09:40,53.191195,-97.896355,4.7,6.9,253,983.32,19.1,87,20.49,0.0,1009.24,45.2
2019-07-27 09:50,53.191195,-97.8963616666667,6.6,7.8,256,983.31,19.2,85,20.49,0.0,1009.23,45.2
2019-07-27 10:00,53.1911666666667,-97.8963933333333,6.7,7.6,263,983.31,19.2,84,20.48,0.0,1009.22,56.0
2019-07-27 10:10,53.1911966666667,-97.8963516666667,6.3,7.6,262,983.32,19.2,85,20.48,0.0,1009.24,56.0
2019-07-27 10:20,53.1912016666667,-97.8963183333333,8.0,9.3,264,983.39,19.2,85,20.47,0.0,1009.30,56.0
2019-07-27 10:30,53.1912416666667,-97.8963,8.6,10.0,265,983.49,19.2,85,20.47,0.0,1009.41,56.0
2019-07-27 10:40,53.1915383333333,-97.898215,8.9,10.8,271,983.54,19.2,86,20.47,0.4,1009.45,56.0
2019-07-27 10:50,53.18741,-97.8859716666667,6.8,11.9,259,983.70,20.5,79,20.45,3.0,1009.56,56.0
2019-07-27 11:00,53.1834366666667,-97.87456,7.3,8.9,268,983.70,22.5,69,20.44,2.8,1009.47,119.8
2019-07-27 11:10,53.1794716666667,-97.863105,7.1,8.7,266,983.76,23.6,67,20.42,2.9,1009.48,119.8
2019-07-27 11:20,53.1750866666667,-97.8522683333333,6.4,8.2,262,983.81,22.6,71,20.41,2.8,1009.57,119.8
2019-07-27 11:30,53.1705783333333,-97.8362966666667,5.3,9.1,262,983.78,21.4,75,20.39,3.8,1009.59,119.8
2019-07-27 11:40,53.170625,-97.836305,8.4,9.6,271,983.72,19.8,81,20.38,0.0,1009.60,119.8
2019-07-27 11:50,53.1706516666667,-97.836295,8.1,9.4,267,983.74,19.6,82,20.38,0.0,1009.62,119.8
2019-07-27 12:00,53.170685,-97.83631,9.0,9.7,267,983.76,19.6,83,20.37,0.0,1009.64,119.4
2019-07-27 12:10,53.1706383333333,-97.8363216666667,8.5,9.8,262,983.74,19.7,81,20.38,0.0,1009.62,119.4
2019-07-27 12:20,53.1706566666667,-97.8363133333333,7.3,9.3,264,983.79,19.7,79,20.38,0.0,1009.67,119.4
2019-07-27 12:30,53.1707016666667,-97.8363333333333,6.6,7.6,258,983.84,19.8,78,20.36,0.0,1009.71,119.4
2019-07-27 12:40,53.1718866666667,-97.8362283333333,6.6,7.9,255,983.82,19.9,78,20.37,0.4,1009.64,119.4
2019-07-27 12:50,53.17755,-97.7856666666667,4.5,5.9,97,983.82,20.2,78,20.36,11.1,1009.54,119.4
2019-07-27 13:00,53.1834983333333,-97.7349983333333,4.2,5.5,99,983.80,20.3,77,20.38,11.1,1009.46,94.5
2019-07-27 13:10,53.191035,-97.6887183333333,3.5,5.3,90,983.85,20.4,77,20.39,10.3,1009.55,94.5
2019-07-27 13:20,53.19315,-97.6752733333333,4.0,5.1,239,983.87,22.9,64,20.38,3.0,1009.51,94.5
2019-07-27 13:30,53.1952816666667,-97.6630033333333,4.3,5.1,235,983.89,24.4,61,20.39,2.8,1009.54,94.5
2019-07-27 13:40,53.19757,-97.650775,4.5,5.5,226,983.91,25.8,58,20.49,2.8,1009.51,94.5
2019-07-27 13:50,53.2003266666667,-97.6339083333333,4.2,6.7,216,983.96,24.9,62,20.53,3.8,1009.60,94.5
2019-07-27 14:00,53.20038,-97.6334816666667,8.1,9.3,238,983.88,21.7,74,20.58,0.1,1009.66,83.2
2019-07-27 14:10,53.2003516666667,-97.633425,9.0,10.6,239,983.83,20.2,79,20.59,0.0,1009.66,83.2
2019-07-27 14:20,53.2004666666667,-97.6334983333333,9.0,10.7,237,983.81,20.1,83,20.59,0.0,1009.65,83.2
2019-07-27 14:30,53.2003433333333,-97.633705,9.6,10.9,233,983.81,20.0,86,20.61,0.1,1009.65,83.2
2019-07-27 14:40,53.1949633333333,-97.6734683333333,18.1,21.2,240,983.28,19.9,89,20.61,8.8,1009.09,83.2
2019-07-27 14:50,53.1875733333333,-97.721665,19.4,20.9,238,983.17,19.8,95,20.49,10.7,1008.98,83.2
2019-07-27 15:00,53.1808133333333,-97.7699833333333,19.5,21.2,238,983.10,19.8,98,20.49,10.7,1008.90,75.7
2019-07-27 15:10,53.1743383333333,-97.8183433333333,19.9,21.7,239,982.98,19.9,99,20.47,10.7,1008.67,75.7
2019-07-27 15:20,53.1895483333333,-97.8434283333333,11.1,20.3,257,983.50,19.7,99,20.44,7.7,1009.14,75.7
2019-07-27 15:30,53.21945,-97.853225,8.2,10.4,294,983.78,19.7,99,20.52,11.0,1009.37,75.7
2019-07-27 15:40,53.24958,-97.8605516666667,7.1,9.7,298,983.71,19.6,99,20.57,11.0,1009.34,75.7
2019-07-27 15:50,53.2796033333333,-97.867525,6.4,8.8,296,983.64,19.7,99,20.56,10.9,1009.41,75.7
2019-07-27 16:00,53.3093283333333,-97.8777566666667,7.1,9.1,286,983.61,19.7,99,20.61,10.9,1009.44,325.9
2019-07-27 16:10,53.3392216666667,-97.8860766666667,6.6,9.3,286,983.50,19.8,99,20.66,10.9,1009.34,325.9
2019-07-27 16:20,53.3692716666667,-97.894085,6.5,9.9,297,983.40,20.0,98,20.74,11.0,1009.23,325.9
2019-07-27 16:30,53.3838766666667,-97.8992883333333,5.8,8.4,250,983.38,20.1,96,20.83,5.4,1009.20,325.9
2019-07-27 16:40,53.3902383333333,-97.9015283333333,8.7,10.1,232,983.36,20.3,91,20.85,2.3,1009.18,325.9
2019-07-27 16:50,53.3966183333333,-97.9034516666667,8.3,10.4,231,983.32,20.5,87,20.86,2.3,1009.12,325.9
2019-07-27 17:00,53.4045183333333,-97.906325,7.5,9.9,231,983.26,20.6,86,20.85,2.9,1009.06,321.5
2019-07-27 17:10,53.412775,-97.908335,6.3,8.9,229,983.24,20.7,86,20.85,3.0,1009.04,321.5
2019-07-27 17:20,53.41274,-97.9081483333333,8.7,11.2,205,983.10,21.0,84,20.85,0.0,1008.88,321.5
2019-07-27 17:30,53.412765,-97.9082066666667,8.0,9.6,195,983.04,21.0,88,20.88,0.0,1008.83,321.5
2019-07-27 17:40,53.412765,-97.9081633333333,9.7,11.4,198,982.97,21.0,89,20.92,0.0,1008.76,321.5
2019-07-27 17:50,53.4125933333333,-97.9083983333333,10.0,11.8,195,982.93,20.9,91,20.95,0.1,1008.71,321.5
2019-07-27 18:00,53.4329733333333,-97.90959,3.8,16.2,220,983.01,20.8,92,20.97,7.3,1008.79,341.7
2019-07-27 18:10,53.4631633333333,-97.9169866666667,2.8,5.5,271,983.00,20.9,92,20.96,11.0,1008.78,341.7
2019-07-27 18:20,53.492515,-97.928725,3.1,7.9,260,982.90,21.0,90,20.96,10.9,1008.66,341.7
2019-07-27 18:30,53.5222966666667,-97.94012,3.4,5.9,267,982.84,21.1,88,20.99,11.0,1008.58,341.7
2019-07-27 18:40,53.5522366666667,-97.949835,3.6,7.0,260,982.76,21.2,86,20.97,11.0,1008.49,341.7
2019-07-27 18:50,53.5815216666667,-97.9579016666667,3.8,6.9,245,982.63,21.3,85,20.97,10.7,1008.35,341.7
2019-07-27 19:00,53.5900116666667,-97.96025,8.9,10.7,194,982.47,21.0,88,21.02,3.1,1008.19,350.1
2019-07-27 19:10,53.5974183333333,-97.96388,9.0,10.9,202,982.48,21.0,89,21.04,2.8,1008.18,350.1
2019-07-27 19:20,53.6047333333333,-97.9684566666667,10.0,11.5,207,982.46,21.3,86,21.06,2.8,1008.16,350.1
2019-07-27 19:30,53.6167583333333,-97.9671,7.9,11.8,200,982.46,21.5,84,21.08,4.3,1008.15,350.1
2019-07-27 19:40,53.6171833333333,-97.966835,10.4,11.9,202,982.30,21.6,88,21.09,0.2,1007.98,350.1
2019-07-27 19:50,53.6171516666667,-97.966805,9.3,10.2,205,982.27,21.5,91,21.08,0.0,1007.96,350.1
2019-07-27 20:00,53.6171233333333,-97.9667183333333,10.3,12.0,218,982.18,21.9,82,21.13,0.0,1007.85,350.4
2019-07-27 20:10,53.617105,-97.9666766666667,11.0,13.0,225,982.13,22.1,80,21.16,0.0,1007.78,350.4
2019-07-27 20:20,53.6170733333333,-97.966725,11.5,13.8,230,982.06,22.2,77,21.19,0.0,1007.70,350.4
2019-07-27 20:30,53.6180216666667,-97.9991166666667,17.8,22.9,245,981.64,22.4,75,21.22,6.9,1007.26,350.4
2019-07-27 20:40,53.61968,-98.0488033333333,21.5,23.3,251,981.38,22.5,72,21.12,10.6,1006.98,350.4
2019-07-27 20:50,53.6205333333333,-98.098595,21.8,23.2,253,981.38,22.5,73,21.00,10.6,1006.99,350.4
2019-07-27 21:00,53.6369683333333,-98.1383633333333,17.1,22.4,263,981.74,22.4,73,21.00,10.3,1007.36,326.4
2019-07-27 21:10,53.6583033333333,-98.1532516666667,11.0,17.8,266,981.91,22.5,72,21.01,8.3,1007.53,326.4
2019-07-27 21:20,53.6852,-98.1285766666667,3.2,5.0,295,982.15,22.7,70,21.01,11.0,1007.75,326.4
2019-07-27 21:30,53.7126683333333,-98.1060416666667,3.1,5.1,295,982.15,22.7,71,21.00,11.0,1007.75,326.4
2019-07-27 21:40,53.7382866666667,-98.0854933333333,3.3,5.9,258,982.06,22.8,70,20.99,10.2,1007.66,326.4
2019-07-27 21:50,53.750815,-98.07376,6.9,12.1,223,981.98,23.0,69,21.05,5.2,1007.55,326.4
2019-07-27 22:00,53.750905,-98.0738733333333,10.7,12.0,217,981.81,23.0,70,21.00,0.0,1007.37,337.3
2019-07-27 22:10,53.750915,-98.07386,11.0,12.2,211,981.78,22.8,69,20.97,0.0,1007.34,337.3
2019-07-27 22:20,53.7509116666667,-98.0738616666667,10.1,11.5,209,981.79,22.7,73,20.97,0.0,1007.35,337.3
2019-07-27 22:30,53.7508966666667,-98.07387,9.5,10.3,208,981.76,22.5,75,20.98,0.0,1007.31,337.3
2019-07-27 22:40,53.75092,-98.073875,9.2,10.4,207,981.70,22.4,77,20.97,0.0,1007.27,337.3
2019-07-27 22:50,53.7509216666667,-98.07387,10.1,12.1,209,981.62,22.4,76,20.96,0.0,1007.19,337.3
2019-07-27 23:00,53.75091,-98.0738733333333,11.5,12.7,212,981.52,22.4,77,20.94,0.0,1007.08,334.7
2019-07-27 23:10,53.75091,-98.0738533333333,10.9,12.5,211,981.50,22.4,77,20.93,0.0,1007.05,334.7
2019-07-27 23:20,53.75089,-98.073835,9.3,10.6,216,981.52,22.5,76,20.93,0.0,1007.07,334.7
2019-07-27 23:30,53.7509,-98.073835,9.4,10.6,218,981.47,22.8,72,20.93,0.0,1007.00,334.7
2019-07-27 23:40,53.7509066666667,-98.0738666666667,9.9,11.2,212,981.38,22.8,75,20.92,0.0,1006.89,334.7
2019-07-27 23:50,53.750905,-98.073875,9.9,11.2,208,981.31,22.6,75,20.92,0.0,1006.83,334.7
